Back to catalog

HULIANWANG DIGUI-110

AliveCommunicationsLEO
NORAD 66920·PAYLOAD·🇨🇳 China

Launched Dec 6, 2025 from Wenchang Space Launch Site

Loading…

Next Passes (next 24 hours)

TLE

FreshSource: Space-Track

Epoch: Sep 14, 2026, 01:42 UTC

1 66920U 25285F   26257.07146526 -.00000092  00000-0  70055-4 0  9991
2 66920  50.0099 187.1965 0000179 263.3378  96.7474 13.29329308 37887

Track HULIANWANG DIGUI-110 in real time with AllMySat

Download on the App Store